Погода в Нижнем Кокуе

Россия / Забайкальский край     51°32′32″N   116°37′08″E
темп.,
°C
ветер,
м/с
пор.,
м/с
влажн.,
%
обл.,
%
осадки,
мм/ч
давл.,
гПа
погр.,
м
20 сентября, пн
пн2000:00+6ююв22905 0.0 101826
03:00+6ююв338966 0.0 101634
06:00+5ю338399 0.0 101639
09:00+9ю3866100 0.0 1014329
12:00+13ююз3549100 0.0 1013542
15:00+15юз344770 0.0 1011664
18:00+14ю116210 0.0 101033
21:00+8в117329 0.0 101111
21 сентября, вт
вт2100:00+7в118191 0.0 101011
03:00+7в1186100 0.1 101010
06:00+8в1188100 0.0 100910
09:00+10в1179100 0.0 1008117
12:00+16ююв126440 0.0 1006773
15:00+19ююз235946 0.5 10041219
18:00+16ю117382 1.4 100417
21:00+11ююв228840 1.4 100618
22 сентября, ср
ср2200:00+9ююз228977 0.1 100723
03:00+9ююз228984 0.1 100834
06:00+9юз2594100 0.5 1009434
09:00+9ююз238234 0.6 1011397
12:00+12юз33621 0.0 1011838
15:00+14зюз33495 0.0 10111026
18:00+13зсз11597 0.0 101141
21:00+9в1164100 0.0 101310
23 сентября, чт
чт2300:00+8в228193 0.0 101314
03:00+8ссв2385100 0.4 101272
06:00+8всв1298100 5.3 1012126
09:00+8всв1194100 5.6 1011112
12:00+10юз4985100 0.1 1011655
15:00+9зюз588584 0.1 1014850
18:00+7з6983100 0.1 10161047
21:00+6з4983100 0.1 1019853
24 сентября, пт
пт2400:00+7з357696 0.0 1020273
03:00+3юз229331 0.0 102218
06:00+2ююз22950 0.0 102317
09:00+6ююз22845 0.0 1023219
12:00+11юз34603 0.0 1022879
15:00+13юз3453100 0.0 10201120
18:00+12юз22665 0.0 102051
21:00+7юв227994 0.0 102211